Wind_Speed
31 31 32 32 32 33 36 33 35 34 37 41 44 47 50 52 50 48 53 56 57 60 63 63 64 65 67 68 69 72 75 80 82 86 88 88 88 90 93 91 94 93 89 88 85 83 82 79 76
31 32 33 33 31 32 35 35 37 41 44 45 53 55 56 55 56 58 55 57 61 64 67 68 70 72 73 74 76 76 77 80 84 86 88 92 95 95 96 98 99 97 97 97 94 93 90 88 85
29 28 28 32 33 36 39 42 45 49 51 52 48 51 54 58 58 59 57 56 58 62 66 70 73 77 78 79 80 82 84 86 87 88 89 92 95 99 101 101 102 102 102 101 101 101 99 95 92
32 30 34 44 43 47 49 49 52 54 53 52 52 53 54 55 55 57 57 58 60 62 64 68 71 75 79 83 85 88 90 92 93 94 96 97 98 99 101 105 106 106 107 107 106 107 107 106 103
43 44 34 41 41 41 41 44 45 47 48 47 49 51 55 54 55 56 58 61 63 64 68 70 71 73 75 77 80 83 86 91 96 99 101 102 103 105 106 106 109 109 110 112 113 109 108 110 112
47 47 52 50 50 48 42 41 41 45 45 46 47 50 54 55 57 59 61 63 65 68 71 74 76 76 77 80 82 84 85 88 90 93 96 100 104 109 111 111 113 115 114 115 116 114 114 114 115
49 48 44 45 42 42 39 40 41 44 45 45 47 52 56 59 62 63 65 67 70 72 74 77 80 82 85 88 89 91 93 95 98 98 99 101 102 103 105 109 114 118 119 119 119 118 119 120 120
33 35 34 31 34 39 39 39 43 46 49 51 53 56 59 64 68 70 72 74 76 78 81 84 86 89 92 95 98 100 103 105 106 108 109 111 111 111 112 113 113 114 118 124 125 126 125 125 124
26 28 32 32 34 38 42 44 48 51 53 57 60 63 65 68 70 73 75 77 78 79 81 83 85 88 91 94 98 100 101 104 105 108 113 119 122 121 119 119 119 120 120 122 123 126 130 130 128
26 28 32 35 37 41 45 47 50 53 55 58 61 61 62 65 67 70 72 76 79 81 84 86 88 90 94 96 97 100 103 105 107 109 111 114 118 121 127 131 132 130 129 128 128 127 128 130 133
29 32 35 39 41 42 43 44 46 49 49 50 52 54 57 61 64 67 70 74 77 81 84 88 90 93 95 97 99 102 105 108 111 111 113 115 116 119 121 124 129 134 138 138 137 134 133 132 131
34 35 36 36 38 40 40 43 45 46 48 49 51 54 56 60 64 68 73 77 81 84 87 91 94 98 102 104 106 107 108 107 107 109 112 116 121 124 128 129 129 130 132 137 143 145 143 141 139
32 33 35 35 36 39 40 41 43 44 45 47 49 52 55 60 67 73 78 82 85 90 93 96 98 99 99 98 94 94 89 88 89 89 90 93 97 105 114 124 130 135 138 138 138 141 146 150 147
31 30 32 34 36 37 39 40 42 44 43 44 47 51 57 65 71 78 82 87 93 97 97 97 96 88 79 76 73 63 59 59 59 61 65 70 77 84 90 98 107 118 132 144 148 146 144 143 148
29 29 30 32 33 38 42 40 43 40 41 43 48 55 62 71 78 84 90 94 97 95 90 84 74 69 59 53 47 44 44 46 49 52 56 60 65 70 77 85 92 97 105 117 131 144 150 152 151
25 29 31 35 35 37 39 38 38 38 41 46 52 61 69 77 84 89 94 94 91 84 74 65 55 47 41 37 36 40 44 48 52 57 61 67 71 77 80 83 86 90 93 98 106 116 129 140 153
25 32 36 37 36 36 36 36 35 38 43 50 57 66 75 85 90 93 90 83 73 65 56 47 38 33 30 32 35 39 43 50 56 63 69 75 78 80 84 86 87 90 92 94 93 96 103 112 122
28 30 33 33 35 36 36 34 34 40 47 54 63 73 83 89 92 89 80 68 61 51 40 31 28 25 28 32 37 41 48 54 61 69 74 76 75 75 76 77 80 84 87 91 92 91 92 93 102
30 34 35 33 35 39 34 32 35 42 50 61 70 79 86 91 86 76 65 58 47 35 28 23 23 25 29 35 39 46 54 61 69 76 74 69 64 62 58 60 62 65 71 81 88 88 86 89 90
33 37 38 37 37 36 32 31 39 46 55 63 73 82 86 82 83 72 64 51 38 29 22 20 23 26 31 36 43 50 56 65 73 76 67 62 58 53 47 48 50 53 56 64 72 80 84 85 86
38 42 42 44 41 33 32 36 44 51 57 65 75 83 83 85 84 73 60 45 36 25 19 21 25 28 34 40 46 53 62 72 81 79 69 60 51 45 41 40 41 42 44 49 58 68 76 81 82
41 42 44 45 37 30 31 37 46 53 61 68 76 84 85 81 80 67 56 42 32 21 19 22 26 31 37 43 49 54 62 73 82 76 63 53 46 40 37 36 35 34 35 41 49 58 64 72 77
41 43 46 44 35 30 31 39 47 55 63 69 76 83 86 86 89 70 56 40 31 20 19 23 28 33 38 44 50 56 64 73 84 77 64 53 43 34 29 27 26 26 28 33 40 45 51 60 67
40 44 47 43 33 29 33 40 50 56 63 69 78 85 88 86 85 75 57 40 31 21 21 24 29 35 40 45 51 57 64 73 82 79 66 54 45 36 28 24 23 21 20 23 30 35 41 47 57
39 44 46 40 31 28 35 44 51 59 63 69 78 86 87 88 85 80 54 38 29 21 22 25 31 36 40 45 51 57 63 71 79 83 69 58 50 40 29 24 22 19 16 15 19 26 30 37 47
39 42 44 37 29 31 38 46 55 60 65 69 77 83 85 88 90 82 58 39 28 23 22 25 31 36 41 45 50 57 63 70 77 82 76 64 53 42 32 24 21 18 14 9 11 16 20 28 36
40 42 44 38 31 31 37 46 51 58 63 65 72 82 88 91 91 85 65 45 31 25 24 25 30 35 39 45 50 56 62 69 76 82 82 69 57 47 39 33 27 20 16 10 6 8 14 20 27
40 41 43 34 29 32 36 45 54 60 64 65 71 79 86 89 87 82 66 49 34 27 25 27 30 35 38 43 49 55 61 68 74 79 84 74 65 54 45 37 32 27 21 14 8 3 7 15 22
40 41 42 33 28 31 36 45 53 61 65 65 69 78 86 87 88 80 70 56 39 29 27 28 30 34 37 42 48 54 60 66 72 78 81 81 71 60 52 45 37 33 28 21 14 7 1 7 14
39 41 41 32 27 32 38 44 51 57 64 64 66 79 84 86 90 83 73 63 46 34 28 27 30 33 36 40 45 51 58 65 70 74 77 81 74 66 57 51 45 39 36 31 26 17 6 3 7
Wind_Direction
258 265 265 267 266 267 271 270 270 272 270 269 271 269 270 268 266 263 267 267 265 261 258 256 253 252 251 249 248 246 246 243 242 243 242 245 244 243 243 245 245 246 247 247 249 250 249 247 245
269 269 270 271 270 274 270 266 271 275 271 273 275 274 271 270 272 278 274 265 261 261 259 257 256 254 254 254 253 250 247 246 246 245 245 245 244 245 245 244 245 246 247 248 247 247 249 250 250
274 271 269 270 270 274 274 276 278 277 278 278 274 276 276 274 276 274 271 268 265 262 260 259 257 256 254 253 253 253 251 249 247 247 246 246 246 246 246 246 246 247 247 246 247 247 246 249 250
272 279 279 275 277 274 274 277 279 279 277 279 279 275 273 274 274 273 273 271 267 265 262 260 258 257 256 256 256 254 253 251 250 249 247 246 246 247 247 247 246 246 245 247 248 246 247 246 246
271 271 277 281 285 275 276 277 276 277 279 279 278 277 275 275 274 273 271 268 267 266 264 262 263 262 259 258 257 256 255 253 252 251 250 249 247 246 246 246 247 246 247 247 246 247 247 247 246
261 267 270 285 286 283 280 276 276 277 279 279 279 278 279 279 278 276 274 272 270 269 268 266 264 262 261 258 256 256 256 255 254 253 253 253 253 251 248 246 246 246 246 246 247 246 247 246 245
268 273 279 277 277 279 282 285 285 285 283 283 283 283 284 284 283 281 279 277 276 274 273 270 266 265 263 261 259 258 258 258 257 256 255 253 251 251 250 250 249 247 245 246 247 247 247 246 245
273 274 273 276 281 283 284 285 286 286 288 288 287 285 286 286 284 284 282 281 279 277 275 274 272 270 269 266 263 262 260 259 258 257 256 255 254 253 251 248 247 247 247 245 244 245 246 246 245
276 276 276 277 284 291 292 294 294 294 294 293 292 291 289 286 285 284 283 282 281 280 278 277 275 274 272 271 268 267 266 265 263 260 257 255 254 253 251 251 250 248 246 245 244 244 243 244 246
286 288 288 289 290 293 295 296 297 296 295 293 293 292 291 290 288 286 286 285 283 282 280 279 278 276 274 273 272 271 271 269 268 267 265 263 260 257 255 252 250 249 247 245 244 244 243 242 242
299 297 296 296 297 298 300 300 300 301 300 299 298 296 295 294 292 290 287 285 283 282 282 281 281 280 280 280 279 278 277 275 271 268 266 264 261 259 257 256 253 250 247 245 245 244 244 242 241
303 304 305 306 305 305 305 304 304 302 303 302 300 300 298 295 293 291 289 288 287 287 287 287 288 288 285 283 281 280 277 276 274 272 268 264 261 259 257 255 252 251 251 247 245 244 243 243 241
310 312 311 312 310 309 309 308 307 306 305 303 302 301 299 297 294 292 292 292 293 293 293 294 294 292 289 286 284 283 280 277 274 272 270 267 264 261 258 255 252 251 249 249 248 246 244 242 241
315 318 316 316 315 315 314 313 310 310 309 308 308 305 301 297 294 294 297 298 298 300 300 298 296 295 290 287 286 284 283 282 280 277 274 271 268 264 261 258 255 252 248 247 247 247 245 243 242
319 320 320 319 323 320 317 316 314 315 314 313 307 304 299 298 299 302 303 306 307 304 302 299 296 294 291 292 290 290 290 288 287 284 280 276 271 267 265 262 258 254 251 247 245 244 244 244 244
328 326 328 334 331 330 325 319 321 322 317 312 309 305 304 306 307 309 312 310 307 306 301 299 298 296 296 295 299 299 297 295 292 290 285 281 275 269 265 263 261 260 256 251 247 245 244 243 242
335 343 340 340 339 331 325 327 327 322 318 315 311 310 312 312 315 318 315 313 312 310 306 302 301 300 301 305 304 304 302 301 300 299 296 288 280 275 270 266 263 261 259 257 253 249 245 241 241
342 340 339 344 341 333 333 333 331 323 323 317 316 317 316 317 323 323 319 318 316 315 311 308 307 307 312 313 313 311 309 310 311 311 305 297 290 284 277 270 263 257 254 253 254 252 249 245 240
344 344 346 346 346 340 338 336 330 329 323 322 322 320 318 324 331 331 331 330 328 324 315 312 312 319 321 321 321 323 324 325 325 321 314 306 300 292 286 277 268 261 255 249 248 249 248 247 244
343 346 351 350 349 345 342 336 333 329 329 326 323 319 321 332 337 340 343 340 335 327 315 320 327 327 328 328 330 331 332 332 331 327 321 316 310 304 294 281 273 265 255 248 244 244 245 244 243
345 346 352 353 350 350 342 340 341 339 333 329 324 321 328 336 341 347 348 343 336 325 325 334 334 333 334 336 336 337 338 339 339 337 331 325 319 314 302 290 280 271 260 251 245 242 239 239 239
345 347 351 353 352 349 350 348 343 338 335 330 327 326 335 346 349 351 350 344 337 331 339 343 339 339 340 342 341 342 343 344 344 342 338 334 331 324 309 297 287 278 264 253 245 242 239 236 235
344 347 351 352 353 352 353 349 343 338 332 333 330 333 347 353 356 356 352 347 338 337 344 343 343 344 345 347 345 346 347 349 350 350 348 344 341 334 323 312 300 288 273 258 249 245 241 236 232
345 347 350 353 355 353 350 349 341 336 338 337 336 339 351 353 356 357 355 351 340 340 341 341 347 346 348 349 348 349 351 354 355 356 355 352 351 354 343 330 320 308 285 265 251 246 241 237 232
347 349 350 352 349 351 351 348 345 346 347 344 343 349 353 356 359 358 357 353 341 337 336 342 350 348 348 351 350 351 354 358 359 2 2 360 2 360 355 347 338 329 309 278 254 247 240 235 231
348 349 351 351 349 349 356 356 353 349 349 351 355 351 355 359 358 2 359 356 345 341 339 344 348 348 350 352 352 352 356 0 3 6 7 6 6 5 7 5 355 345 334 304 261 244 237 230 228
348 351 353 351 349 357 357 359 351 351 355 358 358 355 355 359 359 2 3 1 353 343 342 345 349 349 351 354 354 354 358 2 6 8 10 10 10 11 11 12 13 6 1 354 310 253 235 226 226
348 352 354 353 349 360 1 0 356 358 359 1 357 359 358 0 2 1 6 7 1 346 345 351 353 352 354 355 357 358 360 4 8 12 13 13 16 15 16 18 18 18 18 15 9 313 240 227 224
348 352 354 354 354 5 6 1 1 360 3 7 5 7 7 5 3 1 5 10 6 355 349 354 356 354 356 357 0 0 2 5 8 14 16 17 20 20 21 22 23 25 27 28 25 18 311 237 235
347 352 355 355 359 6 12 4 6 2 9 12 10 9 12 8 6 3 4 11 10 2 355 356 357 356 357 360 2 3 4 6 10 14 19 21 22 22 26 26 28 28 32 33 35 34 14 302 248
Height
10889 10889 10891 10892 10894 10893 10889 10891 10887 10887 10886 10882 10878 10876 10874 10872 10875 10877 10873 10869 10867 10866 10863 10863 10862 10862 10861 10860 10860 10860 10861 10861 10860 10859 10860 10860 10863 10865 10865 10867 10869 10872 10875 10879 10882 10885 10888 10892 10896
10886 10887 10888 10887 10887 10887 10883 10883 10881 10877 10875 10876 10869 10867 10865 10862 10861 10862 10862 10858 10855 10852 10850 10849 10847 10846 10844 10845 10844 10845 10845 10845 10845 10846 10847 10846 10846 10847 10849 10851 10852 10855 10857 10860 10866 10870 10873 10876 10881
10883 10883 10884 10882 10881 10880 10876 10874 10873 10868 10867 10864 10863 10857 10853 10850 10850 10846 10845 10844 10842 10839 10836 10833 10830 10828 10827 10827 10826 10826 10826 10826 10826 10826 10828 10830 10829 10829 10830 10834 10835 10835 10838 10842 10846 10850 10856 10860 10863
10878 10879 10879 10873 10873 10872 10869 10868 10863 10859 10859 10857 10852 10847 10842 10841 10837 10833 10832 10830 10828 10825 10821 10817 10813 10811 10808 10807 10806 10806 10806 10805 10805 10805 10805 10808 10807 10809 10809 10810 10814 10816 10819 10823 10825 10830 10835 10841 10847
10873 10874 10872 10865 10865 10864 10864 10860 10854 10850 10850 10847 10843 10837 10831 10832 10827 10824 10820 10817 10813 10810 10805 10801 10797 10795 10792 10790 10788 10787 10786 10784 10784 10785 10786 10786 10787 10788 10789 10790 10792 10795 10797 10800 10804 10809 10813 10818 10823
10869 10868 10866 10862 10857 10854 10856 10852 10849 10844 10844 10841 10835 10829 10822 10818 10814 10811 10807 10802 10798 10795 10790 10785 10780 10778 10775 10773 10770 10768 10766 10764 10763 10763 10763 10763 10764 10766 10766 10767 10769 10770 10774 10777 10780 10785 10788 10795 10802
10863 10861 10860 10856 10851 10849 10848 10845 10841 10836 10834 10832 10828 10820 10812 10806 10800 10795 10791 10788 10784 10778 10773 10769 10765 10760 10756 10752 10749 10746 10743 10741 10740 10739 10738 10737 10736 10736 10738 10740 10742 10745 10748 10752 10754 10758 10763 10770 10777
10857 10856 10855 10851 10846 10842 10840 10840 10833 10828 10822 10819 10814 10809 10803 10795 10786 10780 10774 10768 10764 10759 10752 10746 10741 10736 10731 10727 10723 10721 10717 10714 10713 10713 10711 10710 10707 10706 10709 10709 10711 10715 10719 10722 10728 10732 10737 10744 10750
10853 10851 10848 10847 10843 10837 10832 10829 10824 10817 10813 10805 10799 10794 10788 10780 10771 10763 10755 10748 10742 10735 10729 10723 10718 10712 10707 10702 10695 10690 10687 10683 10681 10680 10678 10678 10677 10676 10677 10678 10680 10684 10688 10692 10696 10703 10709 10716 10723
10849 10847 10843 10840 10837 10832 10826 10821 10813 10806 10802 10793 10786 10778 10770 10762 10754 10746 10739 10730 10720 10713 10704 10697 10692 10685 10678 10673 10669 10664 10660 10656 10652 10650 10647 10644 10642 10641 10641 10643 10645 10649 10652 10658 10661 10667 10676 10684 10693
10844 10841 10837 10832 10828 10823 10818 10811 10805 10796 10789 10783 10773 10765 10756 10747 10737 10729 10720 10711 10701 10692 10684 10675 10669 10660 10653 10647 10639 10631 10625 10620 10615 10612 10608 10604 10602 10601 10601 10603 10604 10610 10616 10620 10627 10634 10640 10649 10660
10838 10834 10830 10825 10819 10814 10809 10802 10796 10788 10779 10771 10761 10752 10743 10731 10721 10710 10698 10689 10680 10673 10664 10655 10645 10634 10623 10614 10606 10597 10586 10578 10572 10566 10565 10562 10558 10555 10557 10560 10562 10566 10573 10579 10586 10595 10604 10613 10624
10832 10828 10823 10818 10812 10806 10801 10793 10786 10779 10770 10761 10752 10742 10730 10717 10704 10693 10682 10673 10663 10652 10641 10629 10615 10601 10588 10577 10567 10559 10549 10543 10537 10530 10523 10519 10514 10513 10511 10513 10517 10522 10528 10534 10543 10552 10563 10574 10586
10827 10823 10818 10812 10805 10799 10792 10784 10776 10769 10760 10751 10741 10729 10718 10704 10689 10677 10668 10657 10643 10629 10614 10597 10584 10570 10558 10548 10539 10532 10526 10520 10512 10505 10498 10492 10485 10480 10475 10472 10472 10475 10482 10489 10499 10507 10518 10529 10544
10822 10818 10814 10807 10801 10791 10781 10778 10767 10760 10750 10741 10731 10720 10704 10689 10677 10665 10649 10634 10617 10598 10583 10569 10556 10546 10536 10529 10523 10517 10511 10504 10497 10489 10481 10471 10462 10454 10446 10439 10435 10436 10439 10444 10452 10462 10474 10484 10500
10818 10812 10807 10800 10792 10785 10775 10769 10760 10752 10743 10733 10721 10705 10691 10679 10663 10646 10630 10610 10590 10572 10557 10546 10536 10529 10523 10519 10513 10506 10499 10492 10482 10471 10461 10450 10440 10429 10420 10412 10408 10406 10406 10408 10412 10421 10430 10440 10455
10815 10807 10802 10795 10788 10779 10771 10764 10756 10745 10735 10722 10708 10694 10680 10661 10645 10630 10606 10584 10566 10549 10537 10529 10524 10520 10516 10512 10505 10498 10489 10479 10466 10452 10436 10420 10408 10398 10389 10385 10380 10377 10374 10374 10379 10386 10395 10403 10412
10813 10809 10802 10794 10784 10773 10765 10757 10749 10738 10727 10711 10699 10684 10664 10647 10629 10605 10583 10564 10547 10534 10526 10520 10517 10513 10509 10504 10497 10487 10476 10464 10449 10429 10409 10390 10374 10360 10352 10347 10343 10342 10343 10343 10346 10353 10362 10371 10381
10809 10803 10795 10787 10778 10768 10760 10752 10742 10732 10718 10704 10689 10668 10648 10635 10616 10589 10566 10547 10532 10523 10518 10514 10512 10507 10502 10495 10485 10474 10460 10445 10428 10406 10382 10360 10343 10329 10320 10313 10309 10309 10310 10314 10318 10323 10331 10340 10349
10804 10797 10789 10781 10773 10764 10755 10746 10737 10725 10712 10696 10676 10656 10639 10626 10603 10575 10553 10536 10526 10519 10514 10511 10507 10502 10495 10487 10476 10464 10450 10432 10410 10384 10359 10338 10320 10305 10296 10289 10285 10283 10282 10284 10289 10296 10304 10312 10322
10798 10791 10783 10775 10766 10758 10749 10741 10731 10720 10705 10689 10671 10647 10635 10615 10587 10562 10545 10531 10523 10516 10512 10507 10502 10496 10488 10479 10467 10452 10435 10413 10387 10359 10335 10316 10301 10288 10277 10270 10265 10262 10261 10262 10265 10269 10277 10287 10299
10794 10787 10779 10771 10763 10755 10746 10737 10727 10715 10701 10683 10662 10637 10626 10603 10577 10555 10540 10527 10518 10512 10508 10502 10497 10490 10482 10471 10459 10446 10428 10405 10378 10348 10325 10305 10289 10275 10263 10255 10250 10246 10244 10244 10246 10249 10256 10265 10275
10791 10783 10775 10766 10758 10751 10745 10736 10724 10711 10695 10678 10652 10632 10613 10590 10568 10550 10534 10521 10514 10508 10503 10498 10492 10485 10476 10466 10452 10437 10419 10396 10367 10337 10312 10295 10280 10266 10253 10245 10238 10235 10232 10231 10231 10234 10241 10248 10257
10788 10779 10770 10761 10754 10749 10742 10732 10720 10707 10689 10668 10645 10621 10604 10584 10562 10544 10529 10517 10510 10505 10499 10494 10488 10480 10470 10460 10447 10432 10413 10391 10363 10333 10308 10289 10272 10257 10247 10238 10231 10225 10222 10221 10221 10224 10229 10235 10244
10786 10777 10767 10759 10752 10747 10739 10727 10715 10698 10682 10662 10636 10618 10600 10577 10556 10540 10525 10514 10506 10501 10496 10489 10483 10475 10466 10455 10441 10426 10408 10387 10362 10335 10308 10286 10267 10254 10244 10235 10228 10221 10216 10214 10215 10216 10219 10225 10232
10783 10775 10767 10758 10752 10743 10735 10722 10709 10695 10680 10661 10637 10618 10597 10575 10554 10537 10522 10511 10504 10498 10491 10485 10479 10471 10462 10451 10438 10423 10405 10385 10363 10337 10309 10287 10269 10256 10245 10235 10227 10220 10214 10211 10209 10210 10213 10217 10223
10781 10773 10764 10754 10748 10742 10733 10721 10710 10696 10680 10662 10643 10618 10594 10574 10554 10536 10521 10508 10500 10493 10487 10481 10475 10468 10459 10448 10435 10421 10403 10384 10363 10337 10313 10291 10273 10257 10245 10235 10227 10220 10214 10209 10207 10207 10208 10212 10217
10778 10771 10762 10754 10747 10740 10733 10720 10708 10694 10678 10663 10644 10621 10598 10576 10554 10535 10520 10506 10498 10491 10485 10479 10473 10466 10457 10447 10435 10421 10405 10386 10366 10344 10319 10296 10276 10260 10248 10237 10229 10221 10215 10210 10207 10205 10206 10209 10212
10775 10768 10760 10753 10746 10740 10730 10720 10706 10692 10679 10664 10645 10624 10601 10579 10556 10537 10520 10506 10495 10488 10482 10476 10470 10464 10455 10445 10433 10421 10405 10389 10372 10350 10328 10304 10282 10265 10251 10241 10232 10224 10218 10212 10209 10207 10206 10208 10210
10773 10766 10759 10752 10745 10738 10729 10719 10707 10694 10681 10664 10648 10627 10606 10585 10560 10540 10522 10507 10494 10485 10479 10474 10468 10461 10453 10444 10434 10422 10408 10392 10376 10358 10339 10317 10293 10275 10260 10248 10238 10229 10223 10217 10212 10209 10207 10207 10207